KB1JDX Weather Reports


Display with metric or nautical units.
time (UTC)temp
F
wind
direction
speed
MPH
gust
MPH
rain 1hr
in
rain 24hr
in
rain mn
in
humidity
%
barometer
mb
20260503220034 53 302 5.0 14.0 0.00 0.00 0.00 41 1008.4
20260503214034 53 291 2.0 14.0 0.00 0.00 0.00 41 1008.1
20260503212033 54 284 6.0 14.0 0.00 0.01 0.00 41 1008.0
20260503211926 54 284 6.0 14.0 0.00 0.01 0.00 41 1008.0
20260503204034 53 303 0.0 12.0 0.00 0.01 0.00 43 1007.5
20260503202034 53 313 8.0 12.0 0.00 0.05 0.00 41 1007.2
20260503201926 53 297 9.0 12.0 0.00 0.05 0.00 42 1007.3
20260503200034 54 307 1.0 13.0 0.00 0.05 0.00 40 1007.1
20260503194034 53 306 0.0 13.0 0.00 0.05 0.00 44 1007.1
20260503192034 53 315 0.0 13.0 0.00 0.05 0.00 47 1007.1
20260503191926 53 279 0.0 13.0 0.00 0.05 0.00 46 1007.0
20260503190034 53 294 5.0 12.0 0.00 0.05 0.00 43 1007.0
20260503184034 52 303 5.0 12.0 0.00 0.05 0.00 44 1007.1
20260503182034 52 286 4.0 12.0 0.00 0.05 0.00 46 1007.0
20260503181926 52 294 9.0 12.0 0.00 0.05 0.00 46 1007.1
20260503180034 53 289 6.0 11.0 0.00 0.05 0.00 47 1006.9
20260503174032 54 310 0.0 11.0 0.00 0.05 0.00 46 1006.8
20260503172032 53 306 5.0 11.0 0.00 0.06 0.00 48 1006.7
20260503171926 53 306 7.0 11.0 0.00 0.06 0.00 48 1006.8
20260503072032 43 300 0.0 0.0 0.00 0.09 0.00 68 1008.5
20260503071926 43 300 0.0 0.0 0.00 0.09 0.00 68 1008.5
20260503054032 44 300 0.0 0.0 0.00 0.09 0.00 67 1009.6
20260503052032 44 300 0.0 0.0 0.00 0.09 0.00 63 1009.9
20260503051926 44 300 0.0 0.0 0.00 0.09 0.00 64 1010.0
20260503050032 45 300 0.0 0.0 0.00 0.09 0.00 63 1009.9
20260503044032 45 300 0.0 0.0 0.00 0.09 0.00 56 1010.1
20260503042032 45 300 0.0 0.0 0.00 0.09 0.00 42 1010.4
20260503041925 45 300 0.0 0.0 0.00 0.09 0.00 43 1010.4
20260503040032 45 300 0.0 0.0 0.00 0.09 0.09 29 1010.3
20260503034032 45 300 0.0 0.0 0.00 0.09 0.09 25 1010.7
20260503032033 46 300 0.0 0.0 0.00 0.09 0.09 14 1010.5
20260503031925 46 300 0.0 0.0 0.00 0.09 0.09 13 1010.5
20260503030032 48 300 0.0 0.0 0.00 0.09 0.09 2 1010.5
20260503024031 48 300 0.0 0.0 0.00 0.09 0.09 1 1010.7
20260503022031 48 300 0.0 0.0 0.00 0.09 0.09 3 1010.7
20260503021925 48 300 0.0 0.0 0.00 0.09 0.09 3 1010.7
20260503020031 48 300 0.0 0.0 0.00 0.09 0.09 5 1010.7
20260503014031 48 300 0.0 0.0 0.00 0.09 0.09 7 1010.3
20260503012031 49 300 0.0 0.0 0.00 0.09 0.09 7 1010.5
20260503011926 49 300 0.0 0.0 0.00 0.09 0.09 7 1010.5
20260503010031 49 300 0.0 0.0 0.00 0.09 0.09 9 1010.3
20260503004032 50 300 0.0 0.0 0.00 0.09 0.09 10 1010.2
20260503002031 50 300 0.0 0.0 0.00 0.09 0.09 12 1010.0
20260503001925 50 300 0.0 0.0 0.00 0.09 0.09 12 1010.1
20260503000032 50 300 0.0 0.0 0.00 0.09 0.09 13 1010.1
20260502234031 51 300 0.0 0.0 0.00 0.09 0.09 14 1010.1
20260502232031 51 300 0.0 0.0 0.00 0.09 0.09 15 1010.0
20260502231925 51 300 0.0 0.0 0.00 0.09 0.09 16 1010.0
20260502230031 51 300 0.0 0.0 0.01 0.09 0.09 15 1009.9
20260502224031 51 301 0.0 0.0 0.01 0.09 0.09 17 1009.9
20260502222031 51 301 0.0 0.0 0.01 0.09 0.09 16 1009.9
20260502221925 51 301 0.0 0.0 0.01 0.09 0.09 16 1010.0